TimeMST,TemperatureF,Dew PointF,Humidity,Sea Level PressureIn,VisibilityMPH,Wind Direction,Wind SpeedMPH,Gust SpeedMPH,PrecipitationIn,Events,Conditions,WindDirDegrees,DateUTC
12:52 AM,-7.1,-9.9,87,30.59,10.0,SSW,3.5,-,N/A,,Clear,200,2014-01-02 07:52:00
1:52 AM,-5.1,-8.0,87,30.57,10.0,SSW,4.6,-,N/A,,Clear,210,2014-01-02 08:52:00
2:52 AM,-6.0,-9.9,83,30.55,10.0,West,3.5,-,N/A,,Clear,280,2014-01-02 09:52:00
3:52 AM,-11.0,-16.1,78,30.62,10.0,WNW,4.6,-,N/A,,Clear,300,2014-01-02 10:52:00
4:52 AM,-14.1,-20.0,75,30.64,10.0,Calm,Calm,-,N/A,,Clear,0,2014-01-02 11:52:00
5:52 AM,-14.1,-18.0,82,30.73,10.0,NNE,3.5,-,N/A,,Clear,20,2014-01-02 12:52:00
6:52 AM,-14.1,-20.0,75,30.76,10.0,Calm,Calm,-,N/A,,Clear,0,2014-01-02 13:52:00
7:52 AM,-13.0,-17.0,82,30.75,10.0,West,5.8,-,N/A,,Clear,270,2014-01-02 14:52:00
8:52 AM,-0.0,-2.9,88,30.72,10.0,Calm,Calm,-,N/A,,Clear,0,2014-01-02 15:52:00
9:52 AM,8.1,1.9,76,30.71,10.0,Calm,Calm,-,N/A,,Clear,0,2014-01-02 16:52:00
10:52 AM,10.9,1.9,67,30.70,10.0,SSW,3.5,-,N/A,,Clear,210,2014-01-02 17:52:00
11:52 AM,14.0,5.0,67,30.63,10.0,SW,3.5,-,N/A,,Clear,230,2014-01-02 18:52:00
12:52 PM,19.0,7.0,59,30.62,10.0,South,3.5,-,N/A,,Clear,180,2014-01-02 19:52:00
1:52 PM,19.9,9.0,62,30.58,10.0,SSW,3.5,-,N/A,,Clear,200,2014-01-02 20:52:00
2:52 PM,21.9,9.0,58,30.57,10.0,Calm,Calm,-,N/A,,Clear,0,2014-01-02 21:52:00
3:52 PM,21.9,9.0,58,30.58,10.0,Calm,Calm,-,N/A,,Clear,0,2014-01-02 22:52:00
4:52 PM,19.9,8.1,60,30.62,10.0,ENE,3.5,-,N/A,,Clear,60,2014-01-02 23:52:00
5:52 PM,10.9,5.0,77,30.67,10.0,NW,4.6,-,N/A,,Clear,310,2014-01-03 00:52:00
6:52 PM,1.0,-2.9,83,30.74,10.0,West,5.8,-,N/A,,Clear,260,2014-01-03 01:52:00
7:52 PM,1.9,-2.0,83,30.71,10.0,West,4.6,-,N/A,,Clear,260,2014-01-03 02:52:00
8:52 PM,-0.9,-4.0,87,30.65,10.0,Calm,Calm,-,N/A,,Clear,0,2014-01-03 03:52:00
9:52 PM,-2.0,-7.1,79,30.59,10.0,SSW,6.9,-,N/A,,Clear,200,2014-01-03 04:52:00
10:52 PM,-5.1,-8.0,87,30.58,10.0,Calm,Calm,-,N/A,,Clear,0,2014-01-03 05:52:00
11:52 PM,-4.0,-9.0,79,30.54,10.0,Calm,Calm,-,N/A,,Clear,0,2014-01-03 06:52:00